Weather History for KH21 - January, 2014

Change the Weather History Date:

Sunday, January 12, 2014

  Actual Average (KAIZ) Record (KAIZ)
Temperature  
Mean Temperature 48 °F -  
Max Temperature 66 °F 38 °F 68 °F (2000)
Min Temperature 30 °F 21 °F -2 °F (1997)
Degree Days  
Heating Degree Days 17    
Moisture  
Dew Point 30 °F    
Average Humidity 53    
Maximum Humidity 93    
Minimum Humidity 24    
Precipitation  
Precipitation 0.00 in - - ()
Sea Level Pressure  
Sea Level Pressure 29.75 in    
Wind  
Wind Speed 11 mph (SSE)    
Max Wind Speed 26 mph    
Max Gust Speed 40 mph    
Visibility 10 miles    
Events      
Averages and records for this station are not official NWS values.
T = Trace of Precipitation, MM = Missing Value Source: NWS Daily Summary

Daily Weather History Graph

Daily Weather History Graph

Search for Another Location

Airport or City:

Trip Planner

Search our weather history database for the weather conditions in past years. The results will help you decide how hot, cold, wet, or windy it might be!

Date:

Astronomy

Jan. 12, 2014 Rise Set
Actual Time 7:26 AM CST 5:12 PM CST
Civil Twilight 6:57 AM CST 5:41 PM CST
Nautical Twilight 6:24 AM CST 6:13 PM CST
Astronomical Twilight 5:53 AM CST 6:45 PM CST
Moon 2:40 PM CST (1/12) 4:25 AM CST (1/12)
Length of Visible Light 10h 43m
Length of Day
9h 45m
Waxing Gibbous, 90% of the Moon is Illuminated
Jan 12
Waxing Gibbous
Jan 15
Full
Jan 23
Last Quarter
Jan 30
New
Feb 6
First Quarter

Hourly Weather History & Observations

Time (CST) Temp. Windchill Dew Point Humidity Pressure Visibility Wind Dir Wind Speed Gust Speed Precip Events Conditions
12:15 AM 35.6 °F 31.7 °F 32.0 °F 87% 29.95 in 10.0 mi SSW 4.6 mph - N/A   Clear
12:35 AM 35.6 °F 30.7 °F 32.0 °F 87% 29.95 in 10.0 mi SSW 5.8 mph - N/A   Clear
12:55 AM 35.6 °F 31.7 °F 32.0 °F 87% 29.94 in 10.0 mi SSW 4.6 mph - N/A   Clear
1:15 AM 33.8 °F 29.6 °F 32.0 °F 93% 29.94 in 10.0 mi South 4.6 mph - N/A   Clear
1:35 AM 32.0 °F 27.5 °F 30.2 °F 93% 29.93 in 10.0 mi SSE 4.6 mph - N/A   Clear
1:55 AM 33.8 °F 28.6 °F 30.2 °F 87% 29.93 in 10.0 mi South 5.8 mph - N/A   Clear
2:15 AM 33.8 °F 28.6 °F 30.2 °F 87% 29.93 in 10.0 mi South 5.8 mph - N/A   Clear
2:35 AM 33.8 °F 27.7 °F 30.2 °F 87% 29.93 in 10.0 mi South 6.9 mph - N/A   Clear
2:55 AM 33.8 °F 28.6 °F 30.2 °F 87% 29.93 in 10.0 mi South 5.8 mph - N/A   Clear
3:15 AM 32.0 °F 25.6 °F 30.2 °F 93% 29.92 in 10.0 mi SE 6.9 mph - N/A   Clear
3:35 AM 30.2 °F 24.3 °F 28.4 °F 93% 29.92 in 10.0 mi SE 5.8 mph - N/A   Clear
3:55 AM 30.2 °F 24.3 °F 28.4 °F 93% 29.92 in 10.0 mi SSE 5.8 mph - N/A   Clear
4:15 AM 32.0 °F 24.8 °F 30.2 °F 93% 29.92 in 10.0 mi SSE 8.1 mph - N/A   Clear
4:35 AM 33.8 °F 27.0 °F 30.2 °F 87% 29.90 in 10.0 mi SSE 8.1 mph - N/A   Clear
4:55 AM 32.0 °F 24.8 °F 28.4 °F 87% 29.89 in 10.0 mi SSE 8.1 mph - N/A   Clear
5:15 AM 32.0 °F 24.8 °F 28.4 °F 87% 29.89 in 10.0 mi SE 8.1 mph - N/A   Clear
5:35 AM 32.0 °F 23.6 °F 28.4 °F 87% 29.88 in 10.0 mi SSE 10.4 mph - N/A   Clear
5:55 AM 33.8 °F 26.4 °F 28.4 °F 81% 29.87 in 10.0 mi SE 9.2 mph - N/A   Clear
6:15 AM 33.8 °F 25.3 °F 30.2 °F 87% 29.87 in 10.0 mi SSE 11.5 mph - N/A   Clear
6:35 AM 35.6 °F 28.0 °F 30.2 °F 81% 29.87 in 10.0 mi SSE 10.4 mph - N/A   Clear
6:55 AM 33.8 °F 25.8 °F 28.4 °F 81% 29.87 in 10.0 mi SE 10.4 mph - N/A   Clear
7:15 AM 35.6 °F 27.5 °F 28.4 °F 75% 29.87 in 10.0 mi SE 11.5 mph - N/A   Clear
7:35 AM 37.4 °F 29.8 °F 28.4 °F 70% 29.87 in 10.0 mi SSE 11.5 mph 18.4 mph N/A   Clear
7:55 AM 37.4 °F 28.5 °F 28.4 °F 70% 29.86 in 10.0 mi SE 15.0 mph 18.4 mph N/A   Clear
8:15 AM 41.0 °F 33.1 °F 28.4 °F 61% 29.86 in 10.0 mi SSE 15.0 mph - N/A   Clear
8:35 AM 42.8 °F 35.1 °F 28.4 °F 57% 29.86 in 10.0 mi SSE 16.1 mph 23.0 mph N/A   Clear
8:55 AM 44.6 °F 38.1 °F 28.4 °F 53% 29.85 in 10.0 mi SSE 13.8 mph 20.7 mph N/A   Clear
9:15 AM 46.4 °F 39.2 °F 28.4 °F 50% 29.84 in 10.0 mi SSE 18.4 mph 24.2 mph N/A   Clear
9:35 AM 50.0 °F - 28.4 °F 43% 29.84 in 10.0 mi SSE 19.6 mph 25.3 mph N/A   Clear
9:55 AM 51.8 °F - 28.4 °F 41% 29.83 in 10.0 mi SSE 16.1 mph 25.3 mph N/A   Clear
10:15 AM 53.6 °F - 28.4 °F 38% 29.83 in 10.0 mi SSE 18.4 mph 24.2 mph N/A   Clear
10:35 AM 55.4 °F - 28.4 °F 36% 29.82 in 10.0 mi South 16.1 mph 27.6 mph N/A   Clear
10:55 AM 57.2 °F - 28.4 °F 33% 29.80 in 10.0 mi South 20.7 mph 27.6 mph N/A   Clear
11:15 AM 59.0 °F - 28.4 °F 31% 29.77 in 10.0 mi South 21.9 mph 31.1 mph N/A   Clear
11:35 AM 60.8 °F - 28.4 °F 29% 29.74 in 10.0 mi South 20.7 mph 33.4 mph N/A   Clear
11:55 AM 60.8 °F - 30.2 °F 31% 29.72 in 10.0 mi South 17.3 mph 28.8 mph N/A   Clear
12:15 PM 62.6 °F - 28.4 °F 27% 29.69 in 10.0 mi South 20.7 mph 34.5 mph N/A   Clear
12:35 PM 62.6 °F - 28.4 °F 27% 29.66 in 10.0 mi South 24.2 mph 40.3 mph N/A   Clear
12:55 PM 62.6 °F - 28.4 °F 27% 29.65 in 10.0 mi South 24.2 mph 39.1 mph N/A   Clear
1:15 PM 62.6 °F - 28.4 °F 27% 29.64 in 10.0 mi South 24.2 mph 36.8 mph N/A   Clear
1:35 PM 62.6 °F - 30.2 °F 30% 29.63 in 10.0 mi South 20.7 mph 39.1 mph N/A   Clear
1:55 PM 64.4 °F - 30.2 °F 28% 29.63 in 10.0 mi South 17.3 mph 34.5 mph N/A   Clear
2:15 PM 64.4 °F - 30.2 °F 28% 29.62 in 10.0 mi South 13.8 mph 29.9 mph N/A   Clear
2:35 PM 64.4 °F - 28.4 °F 26% 29.61 in 10.0 mi South 16.1 mph 29.9 mph N/A   Clear
2:55 PM 66.2 °F - 28.4 °F 24% 29.60 in 10.0 mi South 20.7 mph 34.5 mph N/A   Clear
3:15 PM 66.2 °F - 28.4 °F 24% 29.60 in 10.0 mi South 26.5 mph 36.8 mph N/A   Clear
3:35 PM 66.2 °F - 28.4 °F 24% 29.59 in 10.0 mi South 18.4 mph 26.5 mph N/A   Clear
3:55 PM 66.2 °F - 28.4 °F 24% 29.59 in 10.0 mi South 12.7 mph 29.9 mph N/A   Clear
4:15 PM 64.4 °F - 28.4 °F 26% 29.59 in 10.0 mi South 18.4 mph 31.1 mph N/A   Clear
4:35 PM 64.4 °F - 28.4 °F 26% 29.60 in 10.0 mi South 11.5 mph 20.7 mph N/A   Clear
4:55 PM 62.6 °F - 28.4 °F 27% 29.60 in 10.0 mi South 11.5 mph 25.3 mph N/A   Clear
5:15 PM 60.8 °F - 28.4 °F 29% 29.60 in 10.0 mi SSE 19.6 mph 23.0 mph N/A   Clear
5:35 PM 60.8 °F - 28.4 °F 29% 29.61 in 10.0 mi South 13.8 mph 20.7 mph N/A   Clear
5:55 PM 59.0 °F - 30.2 °F 34% 29.62 in 10.0 mi SSE 18.4 mph 24.2 mph N/A   Clear
6:15 PM 59.0 °F - 30.2 °F 34% 29.63 in 10.0 mi South 12.7 mph 23.0 mph N/A   Clear
6:35 PM 57.2 °F - 30.2 °F 36% 29.64 in 10.0 mi South 11.5 mph - N/A   Clear
6:55 PM 55.4 °F - 30.2 °F 38% 29.65 in 10.0 mi South 11.5 mph 18.4 mph N/A   Clear
7:15 PM 55.4 °F - 30.2 °F 38% 29.66 in 10.0 mi SSE 11.5 mph 18.4 mph N/A   Clear
7:35 PM 55.4 °F - 30.2 °F 38% 29.66 in 10.0 mi SSE 10.4 mph - N/A   Clear
7:55 PM 53.6 °F - 30.2 °F 41% 29.67 in 10.0 mi SSE 9.2 mph - N/A   Clear
8:15 PM 53.6 °F - 30.2 °F 41% 29.66 in 10.0 mi SSE 10.4 mph - N/A   Clear
8:35 PM 53.6 °F - 30.2 °F 41% 29.66 in 10.0 mi SSE 10.4 mph - N/A   Clear
8:55 PM 51.8 °F - 30.2 °F 44% 29.64 in 10.0 mi SSE 10.4 mph - N/A   Clear
9:15 PM 53.6 °F - 30.2 °F 41% 29.63 in 10.0 mi SSE 11.5 mph - N/A   Clear
9:35 PM 53.6 °F - 30.2 °F 41% 29.63 in 10.0 mi SSE 13.8 mph 18.4 mph N/A   Clear
9:55 PM 51.8 °F - 32.0 °F 47% 29.63 in 10.0 mi SSE 11.5 mph - N/A   Clear
10:15 PM 51.8 °F - 32.0 °F 47% 29.63 in 10.0 mi SSE 10.4 mph 16.1 mph N/A   Clear
10:35 PM 51.8 °F - 32.0 °F 47% 29.62 in 10.0 mi SSE 11.5 mph 16.1 mph N/A   Clear
10:55 PM 51.8 °F - 32.0 °F 47% 29.61 in 10.0 mi SSE 12.7 mph 18.4 mph N/A   Clear
11:15 PM 51.8 °F - 32.0 °F 47% 29.62 in 10.0 mi SSE 10.4 mph - N/A   Clear
11:35 PM 51.8 °F - 32.0 °F 47% 29.61 in 10.0 mi SSE 9.2 mph - N/A   Clear
11:55 PM 51.8 °F - 32.0 °F 47% 29.63 in 10.0 mi SSE 8.1 mph - N/A   Clear